This is the latest recevied weather packets stored in our database for station/object DF9PM-13. If no packets are shown the sender has not sent any weather packets the latest 10 day(s).
| Time | Temp. | Humidity | Pressure | Rain* | Wind** | Luminosity | Snow |
|---|---|---|---|---|---|---|---|
| 1777489736 | 15° C | 28% | 1024.3 hPa | - | - | - | - |
| 1777489436 | 15° C | 29% | 1024.3 hPa | - | - | - | - |
| 1777489136 | 15° C | 28% | 1024.2 hPa | - | - | - | - |
| 1777488838 | 15° C | 28% | 1024.1 hPa | - | - | - | - |
| 1777488536 | 15° C | 29% | 1024 hPa | - | - | - | - |
| 1777488236 | 15.56° C | 29% | 1023.9 hPa | - | - | - | - |
| 1777487936 | 15.56° C | 28% | 1023.9 hPa | - | - | - | - |
| 1777487636 | 15.56° C | 29% | 1023.8 hPa | - | - | - | - |
| 1777487336 | 15.56° C | 29% | 1023.8 hPa | - | - | - | - |
| 1777487036 | 16.11° C | 28% | 1023.6 hPa | - | - | - | - |
| 1777486736 | 16.11° C | 29% | 1023.6 hPa | - | - | - | - |
| 1777486436 | 16.67° C | 28% | 1023.4 hPa | - | - | - | - |
| 1777486136 | 16.67° C | 29% | 1023.4 hPa | - | - | - | - |
| 1777485835 | 16.67° C | 28% | 1023.3 hPa | - | - | - | - |
| 1777485536 | 16.67° C | 28% | 1023.2 hPa | - | - | - | - |
| 1777484335 | 17.78° C | 27% | 1023 hPa | - | - | - | - |
| 1777484035 | 17.22° C | 27% | 1022.9 hPa | - | - | - | - |
| 1777483735 | 17.78° C | 27% | 1022.9 hPa | - | - | - | - |
| 1777483435 | 17.78° C | 27% | 1022.9 hPa | - | - | - | - |
| 1777483135 | 17.78° C | 27% | 1022.9 hPa | - | - | - | - |
| 1777482835 | 17.78° C | 27% | 1022.9 hPa | - | - | - | - |
| 1777482535 | 18.33° C | 26% | 1022.9 hPa | - | - | - | - |
| 1777481935 | 18.89° C | 25% | 1022.8 hPa | - | - | - | - |
| 1777481635 | 18.89° C | 25% | 1022.8 hPa | - | - | - | - |
| 1777481035 | 18.89° C | 25% | 1022.7 hPa | - | - | - | - |
* Rain since midnight (hover to see other rain measurements)
** Current wind speed in m/s (hover to see current wind gust speed)